Find Starlink 37329

NORAD ID: 69155 Int'l Des: 2026-111 Owner: SPXS Country: US Constellation: starlink operational
LEOCIRCULAR

当前视图

正在加载3D地球...

About Starlink 37329

Starlink 37329 (NORAD 69155) is a starlink constellation satellite (v2 mini) launched May 21, 2026 by SPXS of US. It operates in LEO, CIRCULAR orbit with a mass of 575.00 kg.

即将过境

Passes for default location (London). Set your location on the main map for personalized predictions.

高度历史

Loading altitude history...

两行轨道根数

1 69155U 26111H 26234.89091950 .00013644 00000-0 41420-3 0 9997
2 69155 53.1573 199.6674 0001645 78.1462 281.9725 15.34401839 14500
Epoch: Aug 22, 2026 • Age: 27 hours

当前状态

高度 467.7 km
远地点 / 近地点 N/A
速度 7.64 km/s
星下点 51.31°N, 32.46°W
发射日期 May 21, 2026
运行时间 0.2 years
类型 internet

技术详情

分类 Payload
质量 575.00 kg
干质量 530.00 kg
总质量 575.00 kg
长度 0.30 m
直径 4.10 m
跨度 29.00 m
形状 Box + pan
制造商 SPXS
平台类型 Starlink V2MO
阶段状态 In Orbit
所有者/国家 SPXS/US

Most Searched